Regional Weather Roundup
Issued by NWS Midland/Odessa, TX

Skip options and go directly to product.
Home | Oldest Version | Next Version | Current Version | All | Text Only | Save Text | Print | Product List | Glossary On

Skip product version selection by date and time.   
948
ASUS44 KMAF 300001
RWRMAF
MIDLAND AREA WEATHER ROUNDUP
NATIONAL WEATHER SERVICE MIDLAND TX
700 PM CDT SUN MAY 29 2016

...IN SOUTHWEST TEXAS AND SOUTHEAST NEW MEXICO...

CITY           SKY/WX    TMP DP  RH WIND       PRES   REMARKS
ALPINE         CLOUDY    81  52  36 NE6       30.15S
ANDREWS        FAIR      80  60  50 S10       30.03F
ARTESIA        SUNNY     82  48  30 S23G30    29.99F
BIG SPRING     CLOUDY    80  62  55 S13       30.00F
CARLSBAD       SUNNY     82  54  37 SE17G26   29.97F
DRYDEN           N/A     83  67  58 E15       29.97S
FORT STOCKTON  NOT AVBL
GUAD PASS      NOT AVBL
HOBBS          LGT RAIN  63  57  82 W20       30.09R
MARFA          CLOUDY    81  57  43 E10       30.12F
MIDLAND AIRPK  CLOUDY    81  63  53 S14G21    30.01F
MIDLAND INTL   CLOUDY    81  63  54 S18       29.99F
ODESSA         CLOUDY    80  63  55 S20       30.00F
PECOS          CLOUDY    85  63  46 E15       29.98F
PRESIDIO       FAIR      95  44  17 E7        29.94
SEMINOLE       CLOUDY    80  61  52 SW13      30.05R
SNYDER           N/A     84  65  53 S6        29.98F
WINK           NOT AVBL
$$
...OTHER STATIONS IN TEXAS...

CITY           SKY/WX    TMP DP  RH WIND       PRES   REMARKS
ABILENE        PTSUNNY   84  65  52 S8        29.98R
AMARILLO       CLOUDY    57  53  86 E30G38    30.14F
AUSTIN         MOSUNNY   86  69  56 S12       29.97F
BROWNSVILLE    CLOUDY    83  75  77 E10       29.98R
CORPUS CHRISTI CLOUDY    84  73  69 SE17      29.99S
DALLAS FTW     CLOUDY    79  72  79 E12       29.95F THUNDER
DEL RIO        CLOUDY    86  70  58 SE12      29.92F
EL PASO        MOSUNNY   91  27  10 SW12G20   29.96F
HOUSTON INT    MOSUNNY   83  68  60 SE10      30.00F
LUBBOCK        CLOUDY    83  58  42 S14       30.03S
SAN ANGELO     SUNNY     86  67  52 S10G18    29.96S
SAN ANTONIO    CLOUDY    85  67  54 SE16      29.99F
WACO           SUNNY     87  68  52 S13       29.96F
WICHITA FALLS  NOT AVBL
$$
...OTHER LOCATIONS IN NEW MEXICO...

CITY           SKY/WX    TMP DP  RH WIND       PRES   REMARKS
ALAMAGORDO     SUNNY     88  23   9 S8        29.99F
ALBUQUERQUE    MOSUNNY   84  15   7 S17       30.02F
CANNON AFB     CLOUDY    67  47  49 S10       30.09R
CLOVIS         CLOUDY    59  50  72 E18G30    30.14R
HOLLOMAN AFB   SUNNY     90  21   8 SW12      29.97F
ROSWELL        SUNNY     84  42  22 S18       29.99F
RUIDOSO        SUNNY     73  37  27 SE20      30.20F
SANTA FE       SUNNY     80   7   6 SW12G22   30.09S
TRUTH OR CONSE SUNNY     87  13   6 SW16G24   30.00F
TUCUMCARI      LGT RAIN  70  50  49 W12       30.06R
$$

USA.gov is the U.S. government's official web portal to all federal, state and local government web resources and services.